Location: Gradaro
(45.0833°N, 10.8833°E)
Time: 23:22:06
(UTC+00:00)

Cosmos 2263 Rocket - Pass Details

Date: 26 April 2021
Orbit: 824 x 848 km, 71.0° (Epoch: 15 May)

Event Time Altitude Azimuth Distance (km) Brightness Sun altitude
Rises 22:47:54 0° 264° (W) 3,356 5.3 -30.8°
Reaches altitude 10° 22:51:37 10° 289° (WNW) 2,429 4.8 -30.9°
Maximum altitude 22:54:28 14° 320° (NW) 2,159 4.9 -30.9°
Drops below altitude 10° 22:57:20 10° 351° (N) 2,439 5.5 -31.0°
Sets 23:01:06 0° 16° (NNE) 3,381 6.3 -31.0°
